TimeEDT,TemperatureF,Dew PointF,Humidity,Sea Level PressureIn,VisibilityMPH,Wind Direction,Wind SpeedMPH,Gust SpeedMPH,PrecipitationIn,Events,Conditions,WindDirDegrees,DateUTC
12:17 AM,35.2,34.2,96,29.70,3.0,West,5.8,-,N/A,,Overcast,270,2013-03-31 04:17:00
12:37 AM,35.2,34.2,96,29.70,3.0,West,10.4,-,N/A,,Overcast,270,2013-03-31 04:37:00
12:56 AM,34.9,33.8,96,29.69,4.0,West,8.1,-,N/A,,Overcast,270,2013-03-31 04:56:00
1:17 AM,34.7,33.6,96,29.69,3.0,West,5.8,-,N/A,,Overcast,270,2013-03-31 05:17:00
1:37 AM,34.3,33.4,97,29.68,2.5,West,5.8,-,N/A,,Overcast,270,2013-03-31 05:37:00
1:56 AM,34.0,33.1,96,29.67,2.0,WSW,5.8,-,N/A,,Overcast,250,2013-03-31 05:56:00
2:17 AM,33.8,32.9,96,29.66,1.0,WSW,8.1,-,N/A,,Overcast,240,2013-03-31 06:17:00
2:36 AM,33.8,32.9,96,29.66,0.5,WSW,6.9,-,N/A,Fog,Fog,250,2013-03-31 06:36:00
2:57 AM,33.6,32.9,97,29.65,1.0,WSW,9.2,-,N/A,,Overcast,250,2013-03-31 06:57:00
3:17 AM,33.6,32.9,97,29.64,1.8,West,8.1,-,N/A,,Overcast,260,2013-03-31 07:17:00
3:36 AM,33.6,32.9,97,29.64,2.5,WSW,9.2,-,N/A,,Overcast,250,2013-03-31 07:36:00
3:57 AM,33.8,32.9,96,29.63,3.0,WSW,9.2,-,N/A,,Overcast,250,2013-03-31 07:57:00
4:17 AM,33.8,32.9,96,29.62,3.0,WSW,8.1,-,N/A,,Overcast,250,2013-03-31 08:17:00
4:36 AM,33.8,33.1,97,29.62,3.0,WSW,8.1,-,N/A,,Overcast,250,2013-03-31 08:36:00
4:57 AM,33.8,32.9,96,29.60,3.0,WSW,4.6,-,N/A,,Overcast,250,2013-03-31 08:57:00
5:16 AM,33.1,32.2,96,29.60,3.0,WSW,4.6,-,N/A,,Scattered Clouds,250,2013-03-31 09:16:00
5:37 AM,32.7,32.0,97,29.59,2.5,SW,4.6,-,N/A,,Clear,230,2013-03-31 09:37:00
5:57 AM,32.4,32.0,99,29.59,3.0,WSW,4.6,-,N/A,,Clear,240,2013-03-31 09:57:00
6:50 AM,32.0,32.0,100,29.58,4.0,WSW,4.6,-,N/A,,Scattered Clouds,240,2013-03-31 10:50:00
7:50 AM,32.0,30.2,93,29.57,4.0,WSW,4.6,-,N/A,,Mostly Cloudy,240,2013-03-31 11:50:00
8:50 AM,32.0,30.2,93,29.56,7.0,West,6.9,-,N/A,,Mostly Cloudy,270,2013-03-31 12:50:00
9:50 AM,35.6,30.2,81,29.55,10.0,WNW,10.4,-,N/A,,Scattered Clouds,290,2013-03-31 13:50:00
10:50 AM,37.4,30.2,75,29.54,10.0,WNW,11.5,20.7,N/A,,Scattered Clouds,290,2013-03-31 14:50:00
11:50 AM,39.2,28.4,65,29.53,10.0,West,13.8,23.0,N/A,,Scattered Clouds,280,2013-03-31 15:50:00
12:50 PM,37.4,26.6,65,29.54,10.0,WNW,13.8,28.8,N/A,,Overcast,300,2013-03-31 16:50:00
1:55 PM,37.4,21.2,52,29.54,10.0,WNW,21.9,28.8,N/A,,Mostly Cloudy,290,2013-03-31 17:55:00
2:55 PM,37.4,19.4,48,29.55,10.0,WNW,24.2,35.7,N/A,,Mostly Cloudy,290,2013-03-31 18:55:00
3:55 PM,35.6,19.4,52,29.58,10.0,West,15.0,27.6,N/A,,Scattered Clouds,280,2013-03-31 19:55:00
4:50 PM,33.8,23.0,65,29.59,10.0,WNW,20.7,29.9,N/A,,Mostly Cloudy,300,2013-03-31 20:50:00
5:55 PM,30.2,23.0,75,29.63,7.0,NW,17.3,28.8,N/A,Snow,Light Snow,320,2013-03-31 21:55:00
6:50 PM,28.4,17.6,64,29.67,10.0,NW,21.9,32.2,N/A,,Mostly Cloudy,320,2013-03-31 22:50:00
7:55 PM,24.8,19.4,80,29.70,3.0,North,20.7,28.8,N/A,Snow,Light Snow,350,2013-03-31 23:55:00
8:55 PM,23.0,19.4,86,29.73,3.0,North,12.7,27.6,N/A,Snow,Light Snow,350,2013-04-01 00:55:00
10:17 PM,23.2,19.4,85,29.77,4.0,NNW,15.0,21.9,N/A,Snow,Light Snow,330,2013-04-01 02:17:00
10:36 PM,23.4,19.9,87,29.77,2.0,North,9.2,-,N/A,Snow,Light Snow,350,2013-04-01 02:36:00
10:57 PM,23.0,19.4,86,29.78,3.0,North,13.8,-,N/A,Snow,Light Snow,350,2013-04-01 02:57:00
11:16 PM,22.5,18.0,83,29.79,5.0,NNW,15.0,26.5,N/A,Snow,Light Snow,340,2013-04-01 03:16:00
11:37 PM,21.9,18.1,85,29.79,5.0,NNW,11.5,17.3,N/A,Snow,Light Snow,340,2013-04-01 03:37:00
11:57 PM,21.9,18.3,86,29.79,2.5,NNW,11.5,18.4,N/A,Snow,Light Snow,340,2013-04-01 03:57:00